Meteo Giornale » Osservazioni meteo Francia » Bale-Mulhouse

ore: 07:00 - Osservazioni Meteo Bale-Mulhouse
Lat. 47° 36' N Lon. 7° 31' E Alt. 270 metri s.l.m.

molto_nuvoloso Europe/Paris

14 °C

Molto Nuvoloso

Temp. 24 Ore

13 °C

27 °C

Nord

3.7 Km/h

Dew point 13 °C

Umidità 93 %

Visibilità  10 Km

Il sole sorge alle ore 07:16

Il sole tramonta alle ore 19:27

Data e Ora Cielo e Fenomeni T °C DP °C Um. % Pres. hPa Vis. km Vento km/h
Oggi h: 07:00 molto_nuvoloso Molto Nuvoloso 14 13 93 1016 10 N 3.7
Oggi h: 06:00 molto_nuvoloso Molto Nuvoloso 13 13 100 1016 10 N 3.7
Oggi h: 05:30 molto_nuvoloso Molto Nuvoloso 13 13 100 1016 10 N 3.7
Oggi h: 05:00 coperto_pioggia Pioggia Debole 13 13 100 1016 10 S/SE 9.3
Oggi h: 04:30 molto_nuvoloso Molto Nuvoloso 13 13 100 1017 7 N 3.7
Oggi h: 04:00 coperto_pioggia Pioggia Debole 13 13 100 1016 10 N 5.5
Oggi h: 03:30 coperto_pioggia Pioggia Foschia 13 13 100 1016 5 N 5.5
Oggi h: 03:00 coperto_pioggia Pioggia Foschia 14 13 93 1016 5 SO 7.4
Oggi h: 02:30 coperto_pioggia Pioggia 14 12 87 1016 7 O/SO 16.7
Oggi h: 02:00 coperto_pioggia Pioggia 14 13 93 1016 10 O/SO 20.3
Oggi h: 01:30 coperto_pioggia Pioggia Debole 14 13 93 1015 9 SO 13
Oggi h: 01:00 coperto_pioggia Pioggia Foschia 15 13 87 1015 5 SO 16.7
Oggi h: 00:30 coperto_pioggia Pioggia 15 14 93 1014 10 O/SO 24
Ieri h: 23:30 coperto_pioggia Pioggia 16 14 87 1012 5 O/SO 27.8
Ieri h: 23:00 coperto_pioggia Pioggia Debole 17 15 88 1012 6 O/SO 27.8
Ieri h: 22:30 coperto_pioggia Pioggia Debole 18 17 93 1011 10 N 5.5
Ieri h: 22:00 coperto_pioggia Pioggia Debole 18 17 93 1011 5 N 5.5
Ieri h: 21:30 coperto_pioggia Pioggia 18 17 93 1011 4 SO 11.1
Ieri h: 21:00 molto_nuvoloso Rovescio nelle Vicinanze 19 16 82 1010 10 N 3.7
Ieri h: 20:30 molto_nuvoloso Rovescio nelle Vicinanze 19 16 82 1010 10 N 7.4
Ieri h: 20:00 molto_nuvoloso Rovescio nelle Vicinanze 20 15 72 1009 10 O/NO 11.1
Ieri h: 19:30 molto_nuvoloso Rovescio nelle Vicinanze 21 15 68 1009 10 O/NO 11.1
Ieri h: 19:00 coperto_pioggia Pioggia Debole 22 15 64 1009 10 O 9.3
Ieri h: 18:30 molto_nuvoloso Rovescio nelle Vicinanze 23 15 60 1009 10 O/SO 9.3
Ieri h: 18:00 molto_nuvoloso Rovescio nelle Vicinanze 24 15 57 1009 10 N 5.5
Ieri h: 17:30 nuvoloso Rovescio nelle Vicinanze 26 13 44 1009 10 N 3.7
Ieri h: 17:00 molto_nuvoloso Rovescio nelle Vicinanze 26 14 47 1009 10 N 5.5
Ieri h: 16:30 molto_nuvoloso Rovescio nelle Vicinanze 26 13 44 1009 10 O/NO 7.4
Ieri h: 16:00 nuvoloso Nuvoloso 27 12 39 1009 10 N 3.7
Ieri h: 15:30 molto_nuvoloso Molto Nuvoloso 26 12 41 1009 10 N 5.5
Ieri h: 15:00 nuvoloso Nuvoloso 27 12 39 1009 10 N 5.5
Ieri h: 14:30 nuvoloso Nuvoloso 26 13 44 1010 10 N 5.5
Ieri h: 14:00 nuvoloso Nuvoloso 25 13 47 1010 10 N 5.5
Ieri h: 13:30 molto_nuvoloso Molto Nuvoloso 25 13 47 1011 10 N 5.5
Ieri h: 13:00 molto_nuvoloso Molto Nuvoloso 24 13 50 1011 10 N 5.5
Ieri h: 12:30 molto_nuvoloso Molto Nuvoloso 23 13 53 1011 10 E 9.3
Ieri h: 12:00 sereno Sereno 22 13 56 1012 10 E 7.4
Ieri h: 11:30 sereno Sereno 21 12 56 1012 10 SE 9.3
Ieri h: 11:00 sereno Sereno 20 12 59 1012 10 S/SE 9.3
Ieri h: 10:30 sereno Sereno 18 12 67 1012 10 SE 7.4
Ieri h: 10:00 sereno Sereno 17 12 72 1012 10 S/SE 7.4
Ieri h: 09:30 sereno Sereno 16 13 82 1012 10 N 5.5
Ieri h: 09:00 sereno Sereno 15 12 82 1012 10 N 0
Ieri h: 08:30 sereno Sereno 15 12 82 1012 10 N 5.5
Ieri h: 08:00 sereno Sereno 15 12 82 1012 10 S/SE 7.4